Change the Weather History Date:

Sunday, May 26, 2013

  Actual Average (KMHK) Record (KMHK)
Temperature  
Mean Temperature 76 °F 67 °F  
Max Temperature 83 °F 79 °F 99 °F (2012)
Min Temperature 68 °F 55 °F 43 °F (2001)
Degree Days  
Heating Degree Days 0 2  
Month to date heating degree days 116  
Since 1 July heating degree days 5297  
Cooling Degree Days 10 4  
Month to date cooling degree days 60  
Year to date cooling degree days 77  
Growing Degree Days 26 (Base 50)    
Moisture  
Dew Point 68 °F    
Average Humidity 76    
Maximum Humidity 96    
Minimum Humidity 60    
Precipitation  
Precipitation 0.00 in 0.16 in 2.47 in (2008)
Month to date precipitation 3.61  
Year to date precipitation 10.33  
Sea Level Pressure  
Sea Level Pressure 29.90 in    
Wind  
Wind Speed 15 mph (South)    
Max Wind Speed 23 mph    
Max Gust Speed 30 mph    
Visibility 10 miles    
Events      
T = Trace of Precipitation, MM = Missing Value Source: NWS Daily Summary

Daily Weather History Graph

Daily Weather History Graph

Search for Another Location

Airport or City:

Trip Planner

Search our weather history database for the weather conditions in past years. The results will help you decide how hot, cold, wet, or windy it might be!

Date:

Astronomy

May. 26, 2013 Rise Set
Actual Time 6:05 AM CDT 8:42 PM CDT
Civil Twilight 5:34 AM CDT 9:13 PM CDT
Nautical Twilight 4:56 AM CDT 9:52 PM CDT
Astronomical Twilight 4:12 AM CDT 10:36 PM CDT
Moon 10:31 PM CDT (5/26) 7:36 AM CDT (5/26)
Length of Visible Light 15h 39m
Length of Day
14h 36m
Waning Gibbous, 96% of the Moon is Illuminated
May 26
Waning Gibbous
May 31
Last Quarter
Jun 8
New
Jun 16
First Quarter
Jun 23
Full

Hourly Weather History & Observations

Time (CDT) Temp. Heat Index Dew Point Humidity Pressure Visibility Wind Dir Wind Speed Gust Speed Precip Events Conditions
12:58 AM 71.2 °F - 66.2 °F 84% 29.96 in 10.0 mi SSE 12.7 mph - N/A   Partly Cloudy
1:58 AM 70.2 °F - 66.6 °F 88% 29.98 in 10.0 mi South 9.2 mph - N/A   Clear
2:58 AM 69.3 °F - 67.6 °F 95% 29.97 in 10.0 mi SSE 15.0 mph - N/A   Clear
3:58 AM 69.8 °F - 68.7 °F 96% 29.93 in 10.0 mi South 15.0 mph 21.9 mph N/A   Clear
4:58 AM 69.6 °F - 68.5 °F 96% 29.90 in 10.0 mi South 19.6 mph - N/A   Clear
5:58 AM 69.3 °F - 66.2 °F 90% 29.90 in 10.0 mi South 16.1 mph 27.6 mph N/A   Clear
6:58 AM 68.7 °F - 66.7 °F 93% 29.93 in 10.0 mi South 10.4 mph 19.6 mph N/A   Clear
7:23 AM 69.8 °F - 66.2 °F 88% 29.97 in 10.0 mi SSW 11.5 mph - N/A   Mostly Cloudy
7:58 AM 70.0 °F - 66.9 °F 90% 29.93 in 10.0 mi South 13.8 mph - N/A   Overcast
8:58 AM 72.0 °F - 66.9 °F 84% 29.90 in 10.0 mi South 20.7 mph 27.6 mph N/A   Mostly Cloudy
9:13 AM 73.4 °F - 66.2 °F 78% 29.93 in 10.0 mi South 18.4 mph 29.9 mph N/A   Scattered Clouds
9:23 AM 73.4 °F - 66.2 °F 78% 29.93 in 10.0 mi South 19.6 mph 29.9 mph N/A   Mostly Cloudy
9:58 AM 72.9 °F - 67.6 °F 84% 29.90 in 10.0 mi SSE 20.7 mph 25.3 mph N/A   Overcast
10:58 AM 75.2 °F - 68.4 °F 79% 29.93 in 10.0 mi SSW 18.4 mph 24.2 mph N/A   Overcast
11:58 AM 77.2 °F - 68.7 °F 75% 29.93 in 10.0 mi SSW 17.3 mph - N/A   Overcast
12:38 PM 80.6 °F 83.9 °F 69.8 °F 70% 29.95 in 10.0 mi SSW 19.6 mph 26.5 mph N/A   Mostly Cloudy
12:48 PM 80.6 °F 83.9 °F 69.8 °F 70% 29.95 in 10.0 mi SSW 18.4 mph 28.8 mph N/A   Mostly Cloudy
12:53 PM 80.6 °F 83.9 °F 69.8 °F 70% 29.95 in 10.0 mi SSW 17.3 mph - N/A   Scattered Clouds
12:58 PM 80.4 °F 83.4 °F 68.9 °F 68% 29.92 in 10.0 mi SSW 17.3 mph - N/A   Scattered Clouds
1:08 PM 80.6 °F 83.2 °F 68.0 °F 65% 29.95 in 10.0 mi SSW 16.1 mph 24.2 mph N/A   Mostly Cloudy
1:43 PM 80.6 °F 83.2 °F 68.0 °F 65% 29.93 in 10.0 mi South 17.3 mph 25.3 mph N/A   Overcast
1:48 PM 80.6 °F 83.2 °F 68.0 °F 65% 29.93 in 10.0 mi South 15.0 mph 23.0 mph N/A   Mostly Cloudy
1:58 PM 82.4 °F 85.4 °F 68.0 °F 62% 29.90 in 10.0 mi South 18.4 mph 23.0 mph N/A   Overcast
2:58 PM 82.4 °F 85.8 °F 68.9 °F 64% 29.87 in 10.0 mi SSE 19.6 mph 26.5 mph N/A   Scattered Clouds
3:58 PM 81.9 °F 85.0 °F 68.7 °F 64% 29.86 in 10.0 mi SSE 16.1 mph 23.0 mph N/A   Partly Cloudy
4:58 PM 82.2 °F 85.3 °F 68.4 °F 63% 29.84 in 10.0 mi South 23.0 mph 28.8 mph N/A   Partly Cloudy
5:58 PM 83.5 °F 86.7 °F 68.4 °F 60% 29.83 in 10.0 mi SSE 20.7 mph 28.8 mph N/A   Scattered Clouds
6:58 PM 81.7 °F 84.0 °F 66.7 °F 60% 29.82 in 10.0 mi South 16.1 mph 28.8 mph N/A   Clear
7:58 PM 80.1 °F 82.4 °F 67.3 °F 65% 29.82 in 10.0 mi South 11.5 mph 20.7 mph N/A   Partly Cloudy
8:58 PM 78.1 °F - 67.5 °F 70% 29.83 in 10.0 mi South 13.8 mph - N/A   Clear
9:58 PM 76.6 °F - 68.0 °F 75% 29.82 in 10.0 mi SSE 8.1 mph - N/A   Clear
10:58 PM 75.2 °F - 69.1 °F 81% 29.81 in 10.0 mi SSE 13.8 mph 19.6 mph N/A   Clear
11:58 PM 74.7 °F - 69.4 °F 84% 29.79 in 10.0 mi SSE 17.3 mph 24.2 mph N/A   Clear